Skip Page Navigation
NASA JPL Caltech
NASA Logo - Jet Propulsion Laboratory + View the NASA Portal
+ Near-Earth Object (NEO) Program
Search JPL
JPL Home Earth Solar System Stars & Galaxies Technology
JPL Solar System Dynamics
BODIES ORBITS EPHEMERIDES TOOLS PHYSICAL DATA DISCOVERY FAQ SITE MAP
JPL Small-Body Database Browser
Search: [ help ]  
11378 Dauria (1998 SV60)
Classification: Main-belt Asteroid          SPK-ID: 2011378
Ephemeris | Orbit Diagram | Orbital Elements | Physical Parameters | Discovery Circumstances ]

[ show orbit diagram ]
Orbital Elements at Epoch 2457000.5 (2014-Dec-09.0) TDB
Reference: JPL 15 (heliocentric ecliptic J2000)
 Element Value Uncertainty (1-sigma)   Units 
e .1331862223881558 5.9544e-08  
a 2.39542988514644 1.3152e-08 AU
q 2.076391627748092 1.4389e-07 AU
i 3.441107485691502 5.5949e-06 deg
node 143.3615104587797 9.5323e-05 deg
peri 254.5156741716399 9.7703e-05 deg
M 106.9660381655879 2.1492e-05 deg
tp 2456598.137931724326
(2013-Nov-01.63793172)
7.9769e-05 JED
period 1354.171352546573
3.71
1.1153e-05
3.054e-08
d
yr
n .2658452339307028 2.1895e-09 deg/d
Q 2.714468142544788 1.4904e-08 AU
  Orbit Determination Parameters
   # obs. used (total)      978  
   data-arc span      10014 days (27.42 yr)  
   first obs. used      1987-10-23  
   last obs. used      2015-03-24  
   planetary ephem.      DE431  
   SB-pert. ephem.      SB431-BIG16  
   condition code      0  
   fit RMS      .55177  
   data source      ORB  
   producer      Otto Matic  
   solution date      2015-Apr-07 16:41:00  

Additional Information
 Earth MOID = 1.08647 AU 
 T_jup = 3.515 
[ show covariance matrix ]

Ephemeris | Orbit Diagram | Orbital Elements | Physical Parameters | Discovery Circumstances ]

Physical Parameter Table
Parameter Symbol Value Units Sigma Reference Notes
absolute magnitude H 14.4 mag n/a MPO266019  

11378 Dauria           Discovered 1998 Sept. 17 by the Lowell Observatory Near-Earth Object Search at the Anderson Mesa Station.
Florida amateur astronomer Tippy D´Auria (b. 1935) is founder of the Winter Star Party. For many years he has worked to encourage both beginning and advanced sky-watchers in the hobby.
NOTE: some special characters may not display properly (any characters within {} are an attempt to place the proper accent above a character)
Reference: 20010109/MPCPages.arcLast Updated: 2009-05-11

Alternate Designations
 1998 SV60 = 1987 UU7 = 1997 LX9 
Ephemeris | Orbit Diagram | Orbital Elements | Physical Parameters | Discovery Circumstances ]
ABOUT SSD CREDITS/AWARDS PRIVACY/COPYRIGHT GLOSSARY LINKS
FirstGov 2015-Apr-27 20:43 UT
(server date/time)  
NASA Home Page
Site Manager:   Ryan S. Park
Webmaster  Alan B. Chamberlin